FW6834 Weather Reports


Display with metric or nautical units.
time (UTC)temp
F
wind
direction
speed
MPH
gust
MPH
rain 1hr
in
rain 24hr
in
rain mn
in
humidity
%
barometer
mb
20230208103102 41 1 3.0 4.0 0.00 0.00 0.00 81 1058.9
20230208101603 41 12 4.0 6.0 0.00 0.00 0.00 81 1059.6
20230208100103 40 43 3.0 6.0 0.00 0.00 0.00 83 1059.6
20230208093102 40 338 3.0 5.0 0.00 0.00 0.00 86 1060.3
20230208085101 40 23 4.0 7.0 0.00 0.00 0.00 88 1060.3
20230208083602 40 3 3.0 7.0 0.00 0.00 0.00 90 1060.3
20230208082103 40 9 5.0 7.0 0.00 0.00 0.00 91 1060.6
20230208080601 40 40 4.0 9.0 0.00 0.00 0.00 91 1061.0
20230208075102 40 23 3.0 6.0 0.00 0.00 0.00 91 1061.3
20230208073602 40 22 3.0 5.0 0.00 0.00 0.00 91 1061.6
20230208072602 40 5 4.0 6.0 0.00 0.00 0.00 91 1061.6
20230208071102 40 6 2.0 7.0 0.00 0.00 0.00 91 1061.6
20230208065703 40 6 4.0 4.0 0.00 0.00 0.00 91 1062.0
20230208064103 40 26 3.0 5.0 0.00 0.00 0.00 91 1062.3
20230208063102 39 1 3.0 6.0 0.00 0.00 0.00 91 1062.0
20230208061602 39 2 3.0 6.0 0.00 0.00 0.00 91 1062.3
20230208060103 40 343 4.0 4.0 0.00 0.00 0.00 91 1062.6
20230208054603 40 21 4.0 4.0 0.00 0.00 0.21 90 1062.6
20230208053103 40 326 3.0 3.0 0.00 0.00 0.21 90 1063.0
20230208044603 40 50 0.0 0.0 0.00 0.00 0.21 88 1063.0
20230208043103 40 11 2.0 4.0 0.00 0.00 0.21 88 1063.0
20230208040102 40 357 1.0 3.0 0.00 0.00 0.21 87 1062.6
20230208035102 40 344 2.0 3.0 0.00 0.00 0.21 87 1062.6
20230208032102 40 1 4.0 4.0 0.01 0.00 0.21 87 1062.6
20230208030602 40 118 4.0 5.0 0.01 0.00 0.21 87 1063.0
20230208025103 39 51 3.0 6.0 0.02 0.00 0.21 88 1063.0
20230208024103 39 64 4.0 4.0 0.02 0.00 0.21 88 1063.3
20230208022602 39 15 1.0 3.0 0.01 0.00 0.20 88 1063.3
20230208021102 39 115 2.0 3.0 0.03 0.00 0.20 88 1063.3
20230208015603 40 10 2.0 4.0 0.02 0.00 0.19 88 1063.3
20230208011102 40 315 2.0 4.0 0.00 0.00 0.17 87 1063.3
20230208004102 40 98 3.0 4.0 0.00 0.00 0.17 87 1063.0
20230208002602 40 163 3.0 4.0 0.00 0.00 0.17 86 1062.6
20230208001602 40 86 5.0 6.0 0.00 0.00 0.17 85 1063.0
20230207234602 41 59 4.0 6.0 0.00 0.00 0.17 85 1062.6
20230207233102 41 95 5.0 6.0 0.00 0.00 0.17 84 1062.3
20230207230102 41 85 4.0 7.0 0.00 0.00 0.17 83 1062.6
20230207223102 41 101 6.0 8.0 0.00 0.00 0.17 83 1062.6
20230207221603 41 81 5.0 10.0 0.00 0.00 0.17 84 1062.6
20230207220102 41 60 6.0 8.0 0.00 0.00 0.17 85 1063.0
20230207213102 41 94 5.0 7.0 0.00 0.00 0.17 86 1062.6
20230207210102 41 61 7.0 7.0 0.03 0.00 0.17 88 1062.3
20230207204603 40 1 4.0 10.0 0.03 0.00 0.17 87 1062.0
20230207203102 40 78 6.0 11.0 0.05 0.00 0.17 86 1062.0
20230207201603 40 331 5.0 9.0 0.04 0.00 0.15 84 1062.3
20230207200102 40 7 8.0 10.0 0.06 0.00 0.14 84 1062.6
20230207194602 40 101 4.0 9.0 0.07 0.00 0.14 84 1063.0
20230207193102 41 94 2.0 9.0 0.06 0.00 0.11 84 1063.3
20230207191602 41 13 5.0 9.0 0.07 0.00 0.10 85 1063.3
20230207190102 42 359 5.0 7.0 0.05 0.00 0.08 83 1063.7
20230207184602 43 28 4.0 10.0 0.04 0.00 0.07 80 1063.7
20230207183103 44 20 6.0 9.0 0.02 0.00 0.05 75 1064.3
20230207181602 45 14 2.0 7.0 0.00 0.00 0.03 72 1064.3
20230207180103 45 333 5.0 5.0 0.00 0.00 0.03 73 1064.0
20230207171603 44 22 3.0 7.0 0.00 0.00 0.03 74 1064.0
20230207170102 44 71 4.0 5.0 0.00 0.00 0.03 75 1063.7
20230207164602 44 49 5.0 6.0 0.00 0.00 0.03 76 1063.7
20230207163102 44 62 2.0 6.0 0.00 0.00 0.03 76 1064.0
20230207161602 44 15 2.0 6.0 0.00 0.00 0.03 77 1063.3
20230207160102 44 70 5.0 11.0 0.00 0.00 0.03 76 1062.6
20230207154603 43 40 6.0 9.0 0.00 0.00 0.03 77 1062.6
20230207151602 43 109 7.0 11.0 0.00 0.00 0.03 80 1062.3
20230207144602 43 115 7.0 10.0 0.01 0.00 0.03 81 1061.6
20230207143102 43 32 6.0 8.0 0.01 0.00 0.03 83 1062.3
20230207141602 42 345 4.0 6.0 0.01 0.00 0.03 84 1062.6
20230207140102 42 14 3.0 8.0 0.01 0.00 0.03 85 1061.6
20230207134601 42 356 6.0 7.0 0.00 0.00 0.02 85 1061.6
20230207132102 42 1 3.0 7.0 0.00 0.00 0.02 84 1061.0
20230207130602 43 44 5.0 9.0 0.00 0.00 0.02 83 1061.0
20230207125601 43 2 5.0 8.0 0.00 0.00 0.02 83 1060.3
20230207122602 43 43 4.0 6.0 0.00 0.00 0.02 84 1060.3
20230207121102 43 20 3.0 5.0 0.00 0.00 0.02 84 1060.3
20230207115602 43 29 4.0 8.0 0.00 0.00 0.02 84 1059.9
20230207114102 43 23 7.0 7.0 0.00 0.00 0.02 85 1059.6
20230207112602 43 18 4.0 9.0 0.00 0.00 0.02 85 1059.3
20230207111102 44 340 6.0 10.0 0.00 0.00 0.02 85 1059.3
20230207105602 44 324 6.0 9.0 0.01 0.00 0.02 87 1058.9